GW3750 Weather Reports


Display with metric or nautical units.
time (UTC)temp
F
wind
direction
speed
MPH
gust
MPH
rain 1hr
in
rain 24hr
in
rain mn
in
humidity
%
barometer
mb
20260504141003 66 269 1.0 5.0 0.00 0.00 0.00 71 1018.7
20260504140505 65 262 2.0 5.0 0.00 0.00 0.00 71 1018.6
20260504130511 61 245 0.0 1.0 0.00 0.00 0.00 80 1018.4
20260504110507 47 266 0.0 0.0 0.00 0.00 0.00 95 1018.0
20260504100507 48 266 0.0 0.0 0.00 0.00 0.00 94 1017.7
20260504082003 49 265 0.0 0.0 0.00 0.00 0.00 94 1018.2
20260504081504 49 265 0.0 0.0 0.00 0.00 0.00 94 1018.3
20260504081003 49 265 0.0 0.0 0.00 0.00 0.00 94 1018.3
20260504080503 49 265 0.0 0.0 0.00 0.00 0.00 93 1018.3
20260504050504 53 265 0.0 1.0 0.00 0.00 0.00 91 1019.7
20260504050014 53 265 0.0 1.0 0.00 0.00 0.00 91 1019.6
20260504045505 52 265 0.0 0.0 0.00 0.00 0.00 90 1019.6
20260504045005 53 265 0.0 2.0 0.00 0.00 0.00 89 1019.5
20260504044504 53 265 0.0 3.0 0.00 0.00 0.00 90 1019.7
20260504044003 53 268 1.0 3.0 0.00 0.00 0.00 90 1019.7
20260504043504 53 252 0.0 1.0 0.00 0.00 0.00 90 1019.6
20260504043005 54 252 0.0 0.0 0.00 0.00 0.00 90 1019.7
20260504042504 54 252 0.0 0.0 0.00 0.00 0.00 90 1019.7
20260504042007 54 252 0.0 1.0 0.00 0.00 0.00 89 1019.7
20260504041507 54 252 0.0 1.0 0.00 0.00 0.00 89 1019.8
20260504041004 54 252 0.0 2.0 0.00 0.00 0.00 89 1019.9
20260504040505 54 252 0.0 2.0 0.00 0.00 0.00 89 1019.9
20260504040004 54 250 0.0 0.0 0.00 0.00 0.00 88 1019.9
20260504035504 54 250 0.0 2.0 0.00 0.00 0.00 88 1019.8
20260504035004 55 250 0.0 2.0 0.00 0.00 0.00 87 1019.8
20260504034507 55 249 0.0 2.0 0.00 0.00 0.00 87 1019.7
20260504034004 55 262 0.0 1.0 0.00 0.00 0.00 87 1019.7
20260504033504 55 262 0.0 1.0 0.00 0.00 0.00 87 1019.8
20260504033007 55 262 0.0 0.0 0.00 0.00 0.00 86 1019.8
20260504032505 56 262 0.0 1.0 0.00 0.00 0.00 86 1019.8
20260504032008 56 262 0.0 1.0 0.00 0.00 0.00 86 1019.8
20260504031510 56 262 0.0 0.0 0.00 0.00 0.00 85 1019.8
20260504031004 56 262 0.0 1.0 0.00 0.00 0.00 85 1019.8
20260504030507 56 262 0.0 2.0 0.00 0.00 0.00 84 1019.7
20260504030014 57 262 1.0 2.0 0.00 0.00 0.00 83 1019.7
20260504025504 57 327 0.0 0.0 0.00 0.00 0.00 83 1019.6
20260504025003 57 327 0.0 0.0 0.00 0.00 0.00 83 1019.5
20260504024510 57 327 0.0 0.0 0.00 0.00 0.00 82 1019.5
20260504024004 57 327 0.0 0.0 0.00 0.00 0.00 83 1019.4
20260504023504 57 278 0.0 0.0 0.00 0.00 0.00 83 1019.4
20260504023008 57 278 0.0 0.0 0.00 0.00 0.00 82 1019.4
20260504022506 57 294 0.0 0.0 0.00 0.00 0.00 81 1019.2
20260504022005 57 294 0.0 0.0 0.00 0.00 0.00 81 1019.2
20260504021508 57 294 0.0 0.0 0.00 0.00 0.00 80 1019.2
20260504021004 58 294 0.0 0.0 0.00 0.00 0.00 79 1019.1
20260504020505 59 294 0.0 0.0 0.00 0.00 0.00 79 1019.2
20260504020011 59 320 0.0 0.0 0.00 0.00 0.00 77 1019.1
20260504015504 59 320 0.0 0.0 0.00 0.00 0.00 75 1019.0
20260504015006 60 319 0.0 0.0 0.00 0.00 0.00 75 1019.0
20260504014518 60 320 0.0 0.0 0.00 0.00 0.00 75 1018.9
20260504014004 60 320 0.0 0.0 0.00 0.00 0.00 72 1018.8
20260504013504 61 320 0.0 0.0 0.00 0.00 0.00 72 1018.7
20260504013028 61 320 0.0 0.0 0.00 0.00 0.00 71 1018.5
20260504012504 61 320 0.0 0.0 0.00 0.00 0.00 70 1018.4
20260504012005 62 320 0.0 0.0 0.00 0.00 0.00 67 1018.4
20260504011510 62 320 0.0 0.0 0.00 0.00 0.00 67 1018.5
20260504011006 62 320 0.0 0.0 0.00 0.00 0.00 66 1018.5
20260504010505 63 320 0.0 0.0 0.00 0.00 0.00 64 1018.6
20260504010012 63 320 0.0 0.0 0.00 0.00 0.00 65 1018.7
20260504005510 64 320 0.0 0.0 0.00 0.00 0.00 64 1018.6
20260504005009 65 320 0.0 0.0 0.00 0.00 0.00 63 1018.6
20260504004512 65 320 0.0 0.0 0.00 0.00 0.00 62 1018.5
20260504004006 66 320 0.0 0.0 0.00 0.00 0.00 61 1018.4
20260504003509 67 320 0.0 0.0 0.00 0.00 0.00 60 1018.4
20260504003016 67 320 0.0 0.0 0.00 0.00 0.00 59 1018.4
20260504002508 69 320 0.0 0.0 0.00 0.00 0.00 57 1018.4
20260504002008 70 320 0.0 0.0 0.00 0.00 0.00 55 1018.4
20260504001513 72 320 0.0 0.0 0.00 0.00 0.00 50 1018.4
20260504001005 72 320 0.0 0.0 0.00 0.00 0.00 48 1018.4
20260504000506 74 319 0.0 0.0 0.00 0.00 0.00 47 1018.4
20260504000018 75 320 0.0 0.0 0.00 0.00 0.00 42 1018.3
20260503235507 76 320 0.0 0.0 0.00 0.00 0.00 41 1018.3
20260503235007 76 320 0.0 0.0 0.00 0.00 0.00 39 1018.3
20260503234517 76 320 0.0 0.0 0.00 0.00 0.00 41 1018.3
20260503234007 76 320 0.0 3.0 0.00 0.00 0.00 39 1018.3
20260503233507 76 320 0.0 3.0 0.00 0.00 0.00 36 1018.3
20260503233021 77 254 0.0 1.0 0.00 0.00 0.00 35 1018.4
20260503232509 76 254 0.0 3.0 0.00 0.00 0.00 32 1018.4
20260503232010 76 240 0.0 4.0 0.00 0.00 0.00 35 1018.4
20260503231520 77 255 1.0 4.0 0.00 0.00 0.00 34 1018.4
20260503230507 76 295 0.0 3.0 0.00 0.00 0.00 32 1018.5
20260503230006 76 274 1.0 2.0 0.00 0.00 0.00 32 1018.6
20260503225503 76 242 1.0 6.0 0.00 0.00 0.00 34 1018.5
20260503225002 76 212 1.0 6.0 0.00 0.00 0.00 33 1018.6
20260503224507 77 252 1.0 4.0 0.00 0.00 0.00 32 1018.6
20260503224006 76 323 0.0 4.0 0.00 0.00 0.00 32 1018.5
20260503223502 75 262 0.0 4.0 0.00 0.00 0.00 34 1018.6
20260503223011 76 318 2.0 4.0 0.00 0.00 0.00 35 1018.6
20260503222506 75 227 0.0 5.0 0.00 0.00 0.00 36 1018.7
20260503222007 75 258 3.0 5.0 0.00 0.00 0.00 36 1018.7
20260503221515 75 290 3.0 6.0 0.00 0.00 0.00 35 1018.7
20260503221011 75 109 1.0 6.0 0.00 0.00 0.00 36 1018.8
20260503220511 76 234 1.0 7.0 0.00 0.00 0.00 35 1018.8
20260503220020 75 249 1.0 7.0 0.00 0.00 0.00 37 1018.9
20260503215503 75 270 4.0 8.0 0.00 0.00 0.00 37 1018.9
20260503215003 75 236 4.0 8.0 0.00 0.00 0.00 35 1019.0
20260503214506 74 338 1.0 5.0 0.00 0.00 0.00 35 1019.1
20260503214006 74 359 3.0 7.0 0.00 0.00 0.00 36 1019.1
20260503213505 75 18 3.0 7.0 0.00 0.00 0.00 35 1019.1
20260503213009 75 356 4.0 7.0 0.00 0.00 0.00 37 1019.2
20260503212504 74 83 0.0 3.0 0.00 0.00 0.00 36 1019.2
20260503212009 74 79 0.0 6.0 0.00 0.00 0.00 38 1019.3
20260503211514 74 260 2.0 6.0 0.00 0.00 0.00 36 1019.3
20260503211007 74 323 3.0 10.0 0.00 0.00 0.00 38 1019.4
20260503210507 74 281 6.0 10.0 0.00 0.00 0.00 36 1019.5
20260503210019 75 310 4.0 10.0 0.00 0.00 0.00 36 1019.6
20260503205509 75 240 2.0 8.0 0.00 0.00 0.00 35 1019.5
20260503205011 74 238 1.0 7.0 0.00 0.00 0.00 37 1019.6
20260503204522 74 297 0.0 7.0 0.00 0.00 0.00 36 1019.8
20260503204004 74 350 3.0 7.0 0.00 0.00 0.00 36 1019.9
20260503203507 74 304 3.0 5.0 0.00 0.00 0.00 36 1020.0
20260503203013 74 238 2.0 5.0 0.00 0.00 0.00 38 1020.0
20260503202504 74 248 1.0 12.0 0.00 0.00 0.00 35 1020.1
20260503202006 74 227 3.0 12.0 0.00 0.00 0.00 36 1020.2
20260503201511 74 164 3.0 7.0 0.00 0.00 0.00 36 1020.3
20260503201009 73 99 2.0 7.0 0.00 0.00 0.00 36 1020.4
20260503200508 74 273 2.0 9.0 0.00 0.00 0.00 34 1020.5
20260503200018 74 238 2.0 10.0 0.00 0.00 0.00 39 1020.6
20260503195509 74 193 5.0 10.0 0.00 0.00 0.00 38 1020.6
20260503195012 74 300 3.0 9.0 0.00 0.00 0.00 36 1020.6
20260503194535 74 8 4.0 8.0 0.00 0.00 0.00 37 1020.6
20260503194008 74 282 2.0 8.0 0.00 0.00 0.00 37 1020.7
20260503193510 74 242 4.0 8.0 0.00 0.00 0.00 36 1020.8
20260503193024 74 357 3.0 8.0 0.00 0.00 0.00 36 1020.8
20260503192510 73 290 2.0 6.0 0.00 0.00 0.00 38 1020.9
20260503192003 73 16 2.0 6.0 0.00 0.00 0.00 38 1021.0
20260503191508 73 60 3.0 7.0 0.00 0.00 0.00 37 1021.1
20260503191003 73 6 3.0 9.0 0.00 0.00 0.00 35 1021.1
20260503190505 74 14 4.0 9.0 0.00 0.00 0.00 36 1021.3
20260503190012 74 285 2.0 6.0 0.00 0.00 0.00 37 1021.3
20260503185508 73 250 1.0 6.0 0.00 0.00 0.00 35 1021.4
20260503185007 73 313 4.0 6.0 0.00 0.00 0.00 37 1021.6
20260503184522 73 274 1.0 5.0 0.00 0.00 0.00 37 1021.6
20260503184011 72 199 2.0 5.0 0.00 0.00 0.00 36 1021.6
20260503183513 73 29 3.0 10.0 0.00 0.00 0.00 36 1021.8
20260503183024 73 294 4.0 10.0 0.00 0.00 0.00 37 1021.9
20260503182509 73 290 3.0 10.0 0.00 0.00 0.00 37 1021.8
20260503182012 72 156 2.0 6.0 0.00 0.00 0.00 37 1021.8
20260503181525 72 44 1.0 9.0 0.00 0.00 0.00 39 1021.8
20260503181010 72 300 4.0 9.0 0.00 0.00 0.00 36 1022.0
20260503180511 72 269 3.0 8.0 0.00 0.00 0.00 36 1022.0
20260503180008 72 306 4.0 8.0 0.00 0.00 0.00 35 1022.1
20260503175504 72 279 4.0 10.0 0.00 0.00 0.00 37 1022.2
20260503175006 72 251 6.0 10.0 0.00 0.00 0.00 37 1022.1
20260503174515 72 113 1.0 7.0 0.00 0.00 0.00 37 1022.2
20260503174007 73 314 3.0 6.0 0.00 0.00 0.00 37 1022.3
20260503173508 72 181 1.0 6.0 0.00 0.00 0.00 40 1022.3
20260503173020 71 279 4.0 6.0 0.00 0.00 0.00 37 1022.4
20260503172510 72 274 2.0 6.0 0.00 0.00 0.00 36 1022.5
20260503172012 72 239 1.0 6.0 0.00 0.00 0.00 39 1022.6
20260503171523 72 240 4.0 8.0 0.00 0.00 0.00 44 1022.7
20260503171011 71 326 3.0 8.0 0.00 0.00 0.00 39 1022.7
20260503170511 71 56 1.0 10.0 0.00 0.00 0.00 39 1022.8
20260503151011 68 4 1.0 5.0 0.00 0.00 0.00 44 1023.5
20260503150503 68 317 2.0 5.0 0.00 0.00 0.00 45 1023.6